{"data":{"norad_id":48865,"intl_designator":"2021-056A","name":"COSMOS 2550","alt_names":[],"object_type":"PAYLOAD","status":"ACTIVE","operator":null,"country":"CIS","launch_date":"2021-06-25","launch_site_code":"PLMSC","launch_vehicle":null,"mission":null,"orbit_class":"UNKNOWN","rcs_meters":null,"size_class":null,"mass_kg":null,"dimensions":null,"purposes":[],"wikipedia_slug":null,"has_3d_model":false,"image_url":null,"decayed_at":null,"tle_current":{"epoch":"2026-05-24T08:28:08.678208Z","epoch_age_seconds":130251,"freshness":"FRESH","line1":"1 48865U 21056A   26144.35287822  .00004584  00000+0  14446-3 0  9991","line2":"2 48865  67.1417 171.9983 0008461 264.7571  95.2618 15.33968666275062","mean_motion":15.33968666,"eccentricity":0.0008461,"inclination_deg":67.1417,"raan_deg":171.9983,"arg_perigee_deg":264.7571,"mean_anomaly_deg":95.2618,"bstar":0.00014446,"rev_number":27506,"period_min":93.874146970353,"perigee_km":458.19643625693,"apogee_km":469.77467604645,"semimajor_km":6842.1225561517,"source":"CELESTRAK","updated_at":"2026-05-25T13:37:56.974609Z"}}}